This is the latest recevied weather packets stored in our database for station/object DC0VZ-6. If no packets are shown the sender has not sent any weather packets the latest 10 day(s).
| Time | Temp. | Humidity | Pressure | Rain* | Wind** | Luminosity | Snow |
|---|---|---|---|---|---|---|---|
| 1778051173 | 13.33° C | 57% | 973.6 hPa | 0 mm | - | - | - |
| 1778050573 | 13.33° C | 57% | 973.5 hPa | 0 mm | - | - | - |
| 1778049973 | 12.78° C | 58% | 973.5 hPa | 0 mm | - | - | - |
| 1778049373 | 12.78° C | 58% | 973.4 hPa | 0 mm | - | - | - |
| 1778048772 | 12.78° C | 58% | 973.4 hPa | 0 mm | - | - | - |
| 1778048172 | 12.22° C | 58% | 973.5 hPa | 0 mm | - | - | - |
| 1778047572 | 12.22° C | 57% | 973.5 hPa | 0 mm | - | - | - |
| 1778046973 | 12.22° C | 57% | 973.5 hPa | 0 mm | - | - | - |
| 1778046372 | 12.22° C | 57% | 973.5 hPa | 0 mm | - | - | - |
| 1778045773 | 12.22° C | 57% | 973.2 hPa | 0 mm | - | - | - |
| 1778045172 | 11.11° C | 57% | 973.2 hPa | 0 mm | - | - | - |
| 1778044572 | 11.67° C | 57% | 973.2 hPa | 0 mm | - | - | - |
| 1778043972 | 11.67° C | 57% | 973.2 hPa | 0 mm | - | - | - |
| 1778043372 | 11.11° C | 57% | 973.3 hPa | 0 mm | - | - | - |
| 1778042772 | 11.11° C | 57% | 973.3 hPa | 0 mm | - | - | - |
| 1778042172 | 11.11° C | 57% | 973.4 hPa | 0 mm | - | - | - |
| 1778041571 | 10.56° C | 57% | 973.4 hPa | 0 mm | - | - | - |
| 1778040971 | 10° C | 57% | 973.4 hPa | 0 mm | - | - | - |
| 1778040371 | 10° C | 57% | 973.4 hPa | 0 mm | - | - | - |
| 1778039771 | 10° C | 57% | 973.6 hPa | 0 mm | - | - | - |
| 1778039171 | 10° C | 57% | 973.6 hPa | 0 mm | - | - | - |
| 1778038571 | 10° C | 57% | 973.6 hPa | 0 mm | - | - | - |
| 1778037971 | 10.56° C | 57% | 973.6 hPa | 0 mm | - | - | - |
| 1778037371 | 10.56° C | 57% | 973.5 hPa | 0 mm | - | - | - |
| 1778036771 | 10.56° C | 57% | 973.5 hPa | 0 mm | - | - | - |
* Rain latest hour (hover to see other rain measurements)
** Current wind speed in m/s (hover to see current wind gust speed)